Lapse_Rate
6.1 6.1 6.2 6.2 6.1 6.9 6.8 5.9 5.9 5.5 5.4 5.2 5.6 5.2 5.6 5.6 5.9 5.8 5.8 5.7 5.8 5.8 6.0 6.1 6.2 6.2 6.1 5.8 5.8 5.7 5.6 5.6 5.5 5.6 5.7 5.7 5.6 5.5 5.5 5.5 5.7 5.8 5.8 5.7 5.9 5.9 6.0 6.1 6.0
6.1 6.0 6.2 6.2 6.8 6.9 6.3 6.1 5.8 5.5 5.7 5.7 5.8 5.8 5.5 5.7 6.2 6.2 5.9 5.9 6.0 6.1 6.1 6.3 6.3 6.2 6.0 5.9 5.8 5.8 5.7 5.7 5.7 5.7 5.7 5.7 5.7 5.6 5.6 5.6 5.8 5.8 5.8 5.9 6.0 6.0 6.0 6.0 6.0
5.9 5.9 5.9 6.1 7.2 7.2 6.5 5.9 5.6 5.8 5.9 5.7 6.0 5.5 5.7 6.0 6.0 6.0 5.9 5.9 6.1 6.2 6.2 6.1 6.2 6.0 6.0 6.0 6.0 5.9 5.9 6.0 6.0 5.9 5.8 5.8 5.7 5.7 5.6 5.8 5.9 5.9 6.0 6.1 6.2 6.2 6.2 6.2 6.1
5.9 6.1 6.2 6.7 6.7 6.3 6.1 5.6 5.9 5.9 5.9 5.9 5.7 5.9 6.2 6.1 6.0 6.1 6.1 6.1 6.1 6.2 6.0 6.1 5.9 6.0 6.1 6.2 6.1 6.0 6.0 6.0 6.0 5.9 5.8 5.8 5.8 5.8 5.7 6.0 6.0 6.1 6.2 6.2 6.3 6.4 6.4 6.2 6.1
6.0 6.2 6.2 6.6 6.5 6.2 6.1 5.6 5.5 5.5 5.5 5.8 5.6 6.0 6.4 6.1 6.1 6.3 6.3 6.2 6.2 6.2 6.1 6.2 6.2 6.2 6.3 6.3 6.2 6.1 6.0 6.0 6.0 6.0 5.9 6.0 5.9 5.9 6.1 6.3 6.3 6.3 6.3 6.3 6.4 6.3 6.2 6.2 6.2
6.1 6.3 6.8 7.0 6.4 6.0 5.9 5.8 5.6 5.5 5.9 6.0 5.9 6.1 6.3 6.2 6.5 6.5 6.3 6.3 6.5 6.4 6.4 6.4 6.3 6.3 6.5 6.3 6.1 6.1 6.0 6.1 6.1 6.0 6.0 6.2 6.1 6.2 6.3 6.3 6.4 6.4 6.5 6.4 6.3 6.2 6.1 6.2 6.3
5.9 6.2 6.9 6.8 6.2 6.0 5.8 5.8 5.9 5.6 5.8 6.0 5.6 5.5 6.2 6.5 6.7 6.6 6.4 6.4 6.5 6.7 6.8 6.6 6.3 6.3 6.3 6.3 6.2 6.1 6.2 6.2 6.1 6.1 6.2 6.2 6.2 6.3 6.3 6.2 6.2 6.3 6.4 6.4 6.2 6.2 6.1 6.1 6.2
6.3 6.3 6.7 6.5 6.5 6.1 6.0 5.8 6.0 5.6 5.8 6.5 5.8 6.4 6.3 6.6 6.8 6.6 6.5 6.5 6.7 6.9 6.8 6.5 6.4 6.4 6.3 6.2 6.1 6.1 6.2 6.2 6.1 6.3 6.4 6.4 6.4 6.5 6.4 6.4 6.2 6.2 6.1 6.3 6.3 6.3 6.3 6.3 6.2
6.3 6.8 6.7 6.6 6.6 5.9 6.1 5.9 6.1 6.2 6.4 6.4 6.5 6.4 6.4 6.5 6.8 6.7 6.6 6.4 6.6 6.7 6.5 6.4 6.4 6.3 6.2 6.2 6.1 6.0 6.1 6.1 6.2 6.3 6.4 6.4 6.3 6.4 6.5 6.5 6.5 6.5 6.5 6.5 6.5 6.4 6.4 6.4 6.2
6.3 7.0 6.8 6.5 6.3 6.1 5.9 5.9 6.1 6.2 6.4 6.4 6.2 6.2 6.3 6.3 6.5 6.5 6.4 6.2 6.4 6.4 6.2 6.3 6.4 6.2 6.1 6.1 6.2 6.0 5.9 5.9 6.2 6.3 6.2 6.3 6.3 6.2 6.4 6.4 6.5 6.6 6.6 6.6 6.6 6.8 6.7 6.6 6.5
6.6 6.9 6.3 6.1 6.1 6.0 5.9 5.8 6.2 6.0 5.9 6.3 6.5 6.4 6.3 6.3 6.3 6.3 6.1 6.1 6.0 6.2 6.1 6.2 6.3 6.3 6.0 6.1 5.9 6.0 5.8 5.8 5.9 6.0 6.1 6.3 6.2 6.3 6.4 6.5 6.7 6.7 6.7 6.7 6.8 6.9 6.8 6.8 6.8
6.8 6.5 6.2 6.0 6.0 6.0 5.9 6.4 5.9 5.9 6.0 6.5 6.4 6.1 6.1 6.2 6.3 6.1 6.0 5.9 5.9 6.1 6.1 6.1 6.2 6.2 6.2 6.0 5.8 5.8 5.9 6.0 5.9 6.0 6.1 6.1 6.1 6.2 6.5 6.5 6.5 6.6 6.7 6.6 6.7 6.9 6.8 6.8 6.8
6.7 6.6 6.4 6.3 6.1 5.9 6.0 5.8 6.0 6.2 6.2 6.5 6.5 6.2 6.1 6.1 6.1 6.2 5.9 5.9 5.8 5.8 5.9 5.9 6.1 6.2 6.1 6.0 5.8 5.8 5.7 5.8 6.0 6.0 6.0 6.1 6.1 6.2 6.3 6.1 6.0 6.3 6.2 6.4 6.6 6.7 6.7 6.7 6.6
6.8 6.6 6.6 6.3 6.1 6.1 6.1 6.2 6.2 6.1 6.1 6.3 6.4 6.1 5.9 6.0 6.2 6.1 6.0 5.8 5.7 5.5 5.4 5.7 5.9 6.0 6.1 5.8 5.6 5.6 5.7 5.9 5.9 6.0 6.1 6.0 6.1 6.2 6.2 6.1 6.1 6.1 6.2 6.1 6.2 6.2 6.4 6.4 6.2
6.6 6.6 6.5 6.4 6.4 6.3 6.0 6.0 6.1 6.3 6.1 6.1 6.1 6.0 5.8 5.8 6.0 5.9 5.6 5.7 5.4 5.3 5.2 5.4 5.6 5.8 5.9 5.9 5.7 5.6 5.6 5.6 5.9 6.1 6.0 6.1 6.2 6.1 6.0 5.9 5.8 6.0 6.1 6.1 6.0 6.0 6.3 6.3 6.2
7.0 7.1 7.2 6.7 6.4 6.5 6.4 7.1 6.5 6.2 6.0 5.9 5.9 5.8 5.7 5.7 5.7 5.6 5.4 5.5 5.5 5.2 5.2 5.2 5.4 5.3 5.5 5.7 5.7 5.6 5.5 5.5 5.6 5.6 5.9 6.1 6.2 6.2 5.9 5.7 5.7 5.7 5.8 6.0 6.2 6.2 6.2 6.2 6.2
7.2 8.2 7.3 6.7 6.4 6.3 6.3 6.9 6.4 6.4 6.1 5.7 5.8 5.8 5.9 5.5 5.6 5.7 5.3 5.1 5.2 5.3 4.9 4.9 5.0 5.0 5.0 5.0 5.2 5.5 5.6 5.5 5.4 5.4 5.4 5.5 5.5 5.6 5.7 5.8 5.8 5.8 5.7 6.0 6.1 6.3 6.3 6.3 6.4
8.1 7.5 7.4 7.4 6.9 6.4 6.6 6.7 6.3 6.5 5.6 5.5 5.3 5.3 5.7 5.8 5.5 5.5 5.3 5.1 4.8 4.9 5.2 4.9 4.8 4.9 5.0 5.0 4.9 5.0 5.2 5.3 5.3 5.3 5.4 5.6 5.6 5.6 5.5 5.7 5.8 5.8 5.9 6.0 6.0 6.0 6.2 6.3 6.4
7.2 7.4 7.3 7.1 6.5 6.6 6.6 6.7 6.8 6.1 5.9 5.6 5.4 5.3 5.3 5.4 5.2 5.3 5.2 5.2 5.2 4.9 5.0 5.1 4.8 4.8 4.8 4.9 4.9 4.9 4.9 4.8 4.9 5.1 5.1 5.2 5.3 5.4 5.4 5.5 5.6 5.9 6.0 6.0 6.1 6.0 6.0 6.0 6.0
7.4 7.4 7.4 6.8 6.4 6.5 7.0 6.8 6.8 6.3 5.9 5.7 5.3 5.3 5.2 5.2 5.4 5.1 5.3 5.2 5.1 5.0 4.7 4.8 4.8 4.8 4.8 4.9 4.9 5.1 4.5 4.1 4.2 5.0 5.2 5.2 5.2 5.4 5.7 5.7 5.8 5.8 5.8 5.6 5.7 5.7 5.8 6.0 6.1
7.8 7.7 7.6 7.1 6.2 6.5 6.5 6.9 6.9 6.4 6.0 5.9 5.6 5.3 5.3 5.3 5.1 5.2 5.5 5.2 5.2 5.1 5.1 4.7 4.5 4.8 4.8 4.9 5.0 5.2 5.2 5.2 5.3 5.1 5.0 5.1 5.2 5.3 5.3 5.3 5.6 5.7 5.5 5.6 5.8 5.9 5.9 6.0 6.0
8.5 7.5 7.4 7.3 7.0 7.8 7.0 8.0 6.9 6.6 6.5 6.3 6.1 6.0 5.8 5.6 5.4 5.2 5.4 5.4 5.5 5.5 5.2 5.1 5.0 5.0 5.3 5.0 5.3 5.7 5.7 5.6 4.9 5.3 5.0 5.1 5.0 5.0 5.1 5.3 5.2 5.4 5.4 5.5 5.7 5.9 5.8 5.7 5.9
7.7 7.5 7.4 7.3 7.5 7.4 7.8 8.1 8.2 7.7 7.1 7.0 6.5 6.2 6.1 6.1 5.8 5.7 5.5 5.9 5.8 5.5 5.4 5.4 5.3 5.2 5.2 5.2 5.6 5.9 5.9 5.4 5.4 5.5 5.3 5.2 5.5 5.4 5.2 5.3 5.1 5.3 5.2 5.3 5.4 5.6 5.8 5.9 5.7
7.9 7.4 7.7 7.6 8.2 9.0 8.3 8.3 9.2 8.8 7.7 7.7 7.4 7.0 6.4 6.4 6.2 6.0 5.8 6.1 6.2 5.9 5.7 5.4 5.6 5.4 5.2 5.2 5.5 5.7 5.7 5.3 5.2 5.6 5.3 5.4 5.7 5.5 5.4 5.2 5.2 5.4 5.3 5.4 5.4 5.4 5.7 5.7 5.7
7.7 8.5 9.4 9.4 9.5 9.6 8.0 8.2 8.9 8.4 8.1 8.4 8.3 7.9 7.3 7.1 6.9 6.7 6.6 6.4 6.3 6.2 6.0 5.8 5.6 5.3 5.3 5.5 5.5 5.4 5.3 5.3 5.4 5.4 5.3 5.3 5.3 5.2 5.4 5.0 5.1 5.6 5.3 5.4 5.5 5.7 5.7 5.7 5.6
8.2 9.3 9.3 8.8 9.6 9.7 8.1 8.7 9.0 8.5 8.7 8.6 8.6 8.6 8.1 7.8 7.0 6.8 6.7 6.8 6.7 6.4 6.3 6.2 6.3 6.1 6.2 6.2 5.7 5.6 5.6 5.6 5.6 5.5 5.5 5.4 5.2 5.3 5.2 5.4 5.1 5.0 5.1 5.1 5.5 5.8 5.9 5.9 5.8
8.9 7.6 9.1 9.4 9.3 9.5 9.5 9.6 8.4 8.4 8.7 8.6 8.6 8.6 8.5 8.1 7.7 6.9 6.9 6.9 7.0 6.7 6.6 6.0 5.9 5.9 6.0 6.0 6.1 6.1 5.5 5.5 5.7 5.1 5.2 5.2 5.1 5.3 5.0 5.0 5.0 4.9 5.2 5.0 5.3 5.6 5.8 5.7 5.6
8.1 8.5 8.8 8.9 9.6 9.5 9.6 9.6 9.5 8.8 8.3 8.6 8.5 8.6 8.7 8.5 8.0 7.8 7.7 7.5 7.4 7.1 6.8 6.2 6.0 5.9 6.0 5.8 5.5 4.9 5.3 4.9 4.9 5.2 4.7 4.5 4.2 4.6 4.8 5.2 5.1 5.0 5.2 5.4 5.6 5.4 5.2 5.3 4.9
8.8 8.5 8.7 9.2 9.5 9.8 9.9 9.8 9.2 9.3 9.0 8.8 8.6 8.9 9.0 9.0 8.9 8.4 8.1 8.2 7.9 7.6 7.0 6.9 5.9 6.2 5.6 5.8 5.0 5.3 5.4 4.7 4.7 5.4 5.3 5.6 5.1 5.0 5.0 5.2 5.6 5.7 5.7 5.5 5.0 5.4 4.9 4.8 5.1
8.9 9.1 9.5 9.6 9.7 9.6 9.5 9.5 9.2 9.2 9.2 9.4 9.3 9.3 9.0 8.7 8.5 8.3 8.1 8.1 8.0 7.7 7.4 6.8 6.4 6.6 6.4 6.9 5.5 6.3 5.7 5.6 5.6 5.4 4.9 5.0 5.6 5.9 6.0 6.1 6.3 5.7 5.4 5.1 5.0 4.5 4.3 4.6 5.3
Wind_Speed
5 6 3 4 4 3 11 8 13 14 11 4 7 2 9 10 8 8 11 9 9 9 13 11 8 11 11 11 10 10 10 12 11 12 13 12 13 13 15 13 13 14 13 14 15 15 15 15 15
3 3 4 4 3 9 9 13 13 9 9 13 8 7 4 8 7 14 11 10 9 10 11 13 9 9 10 10 10 11 11 11 11 12 11 13 12 13 13 13 13 12 12 13 14 14 14 13 13
4 4 3 1 5 8 9 9 12 11 12 8 5 6 4 6 13 7 16 12 12 10 11 13 9 9 10 10 10 10 10 10 11 11 11 12 11 12 13 13 10 10 10 11 11 11 11 9 8
3 4 4 2 13 9 9 9 9 11 8 4 8 9 8 9 8 9 14 12 11 9 11 11 8 9 10 10 10 9 9 11 10 11 11 11 10 12 11 10 8 7 7 8 8 8 8 7 4
3 4 4 10 14 12 12 13 9 8 8 7 4 8 13 7 10 15 13 11 11 10 12 12 9 8 8 9 9 10 10 11 10 10 10 10 10 10 9 9 7 7 6 6 6 6 5 5 3
3 3 9 10 14 12 10 9 6 6 8 7 7 17 9 10 15 13 12 10 10 10 9 12 10 8 6 6 9 8 8 9 9 9 10 9 9 8 7 7 7 7 6 6 6 5 3 2 1
1 3 7 13 14 10 9 7 4 7 8 7 14 13 10 14 13 12 11 9 8 9 8 9 10 10 6 7 9 9 9 8 7 8 8 7 7 6 5 5 6 6 6 6 6 5 3 2 2
0 2 10 10 9 12 9 5 5 5 7 11 8 7 15 17 14 13 11 9 6 6 7 8 8 8 7 14 8 8 7 7 7 6 6 4 5 4 5 5 5 4 5 5 5 4 2 3 5
2 3 6 7 4 9 10 9 4 4 12 8 6 8 19 18 15 14 12 10 8 6 6 7 9 6 7 8 10 8 6 5 6 6 4 7 6 8 7 6 5 3 3 4 4 3 3 6 8
3 5 7 6 5 10 11 5 10 9 11 10 9 15 19 17 15 14 12 11 10 10 9 7 8 10 10 10 8 8 8 8 6 4 3 3 4 3 2 3 3 4 5 5 5 5 7 11 5
2 8 5 4 6 10 10 7 5 12 9 11 15 20 20 16 15 13 11 10 10 10 8 9 9 10 10 11 9 8 7 6 6 1 3 2 3 3 6 3 7 6 9 7 7 5 5 3 6
4 5 3 5 8 10 8 8 9 1 5 8 17 21 19 18 15 13 11 10 10 11 11 12 12 10 9 9 7 8 6 5 2 4 0 2 2 2 2 0 2 2 1 4 1 3 5 6 7
1 7 10 10 7 9 8 9 6 5 8 15 19 18 18 16 14 12 10 10 9 11 11 12 11 8 9 6 6 1 4 4 5 4 2 3 3 3 1 3 1 3 2 1 0 1 3 3 2
3 12 13 10 10 8 9 9 2 6 11 15 17 16 15 15 15 13 11 10 10 12 12 12 11 10 8 4 3 3 4 4 2 1 2 2 4 4 2 1 1 1 2 2 1 3 1 1 4
11 14 13 9 8 4 7 8 3 13 14 15 15 14 13 13 14 13 12 10 11 11 13 13 11 11 7 5 5 5 5 5 3 2 2 1 3 3 5 1 2 3 2 2 1 3 2 4 2
9 10 9 8 9 6 7 9 9 14 15 15 15 14 13 14 13 12 12 11 12 11 12 12 10 10 8 7 5 5 5 5 4 3 3 3 4 3 4 4 3 4 5 3 3 4 5 4 6
7 5 2 7 8 5 10 3 9 14 14 14 15 14 14 14 13 13 12 12 12 12 11 11 10 9 8 6 6 6 6 8 7 5 5 3 4 5 7 6 4 4 7 4 5 5 4 7 7
5 5 3 3 7 7 8 10 8 12 14 14 14 15 15 15 16 14 13 13 12 12 12 12 10 9 7 5 4 5 6 9 8 7 7 3 6 5 6 7 5 7 5 6 5 6 7 7 6
7 4 5 2 2 7 8 8 6 12 15 14 14 16 16 16 15 15 14 13 12 13 13 14 13 10 7 7 6 5 7 8 6 7 5 6 7 7 6 9 6 6 6 6 6 7 7 7 6
3 6 4 3 3 8 6 10 8 11 16 16 16 16 18 18 16 16 16 15 15 15 14 14 14 14 11 8 6 5 4 5 5 4 4 4 5 5 7 6 6 5 5 7 7 8 7 8 4
8 6 5 10 4 5 7 14 6 12 15 15 15 15 18 19 19 18 17 17 17 17 17 16 16 15 14 12 8 7 6 6 7 6 5 1 2 2 2 3 4 5 5 4 6 7 7 6 6
2 4 4 6 6 3 2 2 8 8 14 17 18 17 17 18 18 17 18 18 18 19 17 17 17 14 12 14 11 12 10 10 9 6 6 3 1 1 3 4 5 5 6 5 5 3 5 4 4
7 3 1 2 4 6 10 6 7 7 8 13 17 19 18 18 19 19 19 18 19 16 16 16 16 17 16 15 15 12 11 10 8 7 5 2 5 7 9 8 8 6 5 4 5 3 5 3 4
3 4 4 3 5 9 6 5 5 4 4 3 7 13 17 17 17 17 17 17 15 14 15 14 15 15 15 15 16 14 10 8 8 7 7 5 5 5 9 8 9 8 6 5 4 4 6 6 6
9 10 8 6 8 5 5 5 7 6 2 1 4 7 11 18 18 17 15 15 15 14 14 12 11 10 9 4 6 8 9 11 12 9 6 7 5 5 6 9 8 7 8 5 3 3 4 5 5
11 13 6 10 12 6 7 4 1 3 3 3 1 4 7 12 17 17 16 12 10 9 9 5 19 15 15 15 14 11 14 11 8 6 7 6 5 6 8 9 8 6 7 6 4 0 3 4 5
8 9 15 14 18 11 13 9 10 11 7 2 3 6 6 9 11 6 4 11 8 8 18 18 18 16 17 15 10 8 6 8 11 10 10 7 7 5 7 8 6 7 6 5 5 3 4 4 4
11 8 7 11 15 19 11 11 9 7 8 4 1 5 6 6 6 7 9 12 13 17 16 16 18 18 15 15 8 5 6 3 8 8 5 8 7 8 7 8 6 2 2 1 3 3 2 3 2
9 12 12 10 10 11 13 8 9 3 3 2 4 5 5 5 7 7 9 10 12 15 13 17 11 16 10 11 12 11 8 4 5 9 8 7 8 8 6 4 4 3 6 5 3 4 3 1 1
12 18 16 12 11 11 10 12 6 6 7 5 6 9 8 8 8 7 8 9 11 13 8 10 7 3 4 5 9 8 7 7 5 7 6 6 6 7 5 6 6 6 6 4 4 4 2 4 4
Wind_Direction
205 229 280 238 224 120 88 86 111 112 120 103 90 27 68 22 4 84 129 127 127 126 126 135 128 130 124 115 110 110 109 112 112 110 104 110 102 100 95 103 101 96 94 97 104 104 103 101 95
196 224 236 269 192 108 92 123 115 88 105 111 101 120 69 73 83 117 128 131 129 129 130 121 125 116 110 114 110 106 107 108 107 104 102 101 104 103 102 99 89 91 99 102 104 107 109 106 101
236 244 269 279 81 94 123 115 92 113 129 134 116 47 46 95 124 108 116 137 135 134 123 107 120 115 117 113 108 108 102 105 101 105 106 102 97 95 89 86 92 97 105 105 107 106 102 99 100
240 200 224 126 99 75 121 127 139 144 137 139 126 96 94 103 121 122 136 136 133 126 109 117 116 118 112 103 99 95 106 93 99 105 101 104 103 94 96 100 102 106 110 108 110 111 113 110 110
230 238 130 109 89 102 101 124 134 136 143 147 169 128 118 126 116 130 137 140 138 140 117 127 120 109 113 106 105 104 105 108 105 110 109 104 102 100 103 104 108 110 110 119 120 122 122 127 129
212 268 152 114 107 111 115 133 125 123 130 132 155 131 104 128 142 141 141 145 139 123 137 130 120 120 107 114 111 122 113 114 116 112 110 108 103 105 107 113 115 118 127 135 145 147 153 165 179
44 243 107 123 118 132 130 134 138 135 142 145 144 136 127 152 139 137 138 140 138 137 135 130 132 130 111 137 128 133 127 125 123 115 113 118 121 123 127 128 130 137 153 161 169 185 207 245 286
174 251 130 127 152 125 135 117 110 128 95 121 145 159 157 147 147 143 143 140 141 141 134 123 142 115 137 134 127 129 133 135 131 127 136 137 142 151 155 178 157 166 171 175 190 210 251 301 294
249 187 117 127 144 129 147 134 109 102 135 159 142 154 140 144 152 152 151 152 149 148 142 149 145 135 128 129 124 138 142 146 150 162 160 201 151 149 166 91 142 201 218 217 228 245 278 280 239
277 100 82 78 83 138 157 145 122 143 143 146 147 120 139 154 163 161 165 159 159 156 158 155 140 134 147 126 136 123 142 144 125 117 145 193 106 99 18 136 192 233 238 245 251 263 275 253 8
58 58 33 70 87 137 135 136 133 146 162 162 162 152 156 163 170 169 171 161 159 154 150 159 137 150 143 126 145 146 144 140 145 178 291 353 291 182 209 170 194 210 190 234 205 213 237 26 354
210 70 69 98 120 127 137 126 144 190 52 147 156 156 161 171 173 173 169 163 160 158 155 151 141 147 126 136 164 135 160 142 156 83 86 13 249 174 279 171 73 229 19 22 294 315 7 325 342
17 93 99 102 119 122 125 120 96 80 119 137 148 161 168 174 174 173 166 166 164 164 157 148 147 150 140 168 126 139 145 147 100 145 96 358 8 16 235 104 271 335 18 33 335 40 337 328 310
110 106 112 117 129 137 142 142 160 120 138 146 158 171 177 179 176 169 176 173 174 168 165 153 162 159 157 163 167 175 166 148 152 155 80 6 343 359 357 167 189 323 355 21 24 25 24 356 317
134 123 119 133 152 137 156 170 142 151 159 162 174 177 180 182 181 180 179 178 182 177 171 161 176 171 172 178 193 200 202 181 194 152 211 240 319 18 315 322 305 348 11 300 291 300 279 290 310
175 177 161 150 175 157 231 124 146 166 173 174 180 179 183 189 189 186 178 181 175 186 182 178 190 178 183 178 197 230 228 235 218 242 234 232 253 234 240 264 291 354 299 288 285 306 310 297 311
210 141 201 164 208 149 230 24 144 175 186 181 182 184 188 187 197 190 189 191 179 188 189 199 196 198 190 197 245 237 227 234 237 246 232 203 261 257 278 266 284 303 293 283 299 311 305 313 313
176 189 165 173 183 223 228 258 149 190 197 192 189 189 192 195 195 192 197 194 192 186 192 203 207 213 209 238 236 251 232 226 234 237 245 218 228 247 270 275 297 287 276 275 289 315 317 303 309
274 241 237 191 144 257 255 262 246 193 209 201 197 193 199 202 192 190 194 199 204 199 198 202 206 217 220 218 226 222 226 211 220 246 262 244 242 243 243 263 258 263 269 319 319 295 288 303 334
264 221 219 104 246 258 267 269 251 215 214 210 205 201 200 201 197 196 195 201 203 205 206 207 212 206 215 219 230 251 255 241 258 233 254 259 244 256 261 281 277 277 315 284 286 278 293 293 324
235 271 118 272 155 255 282 262 254 207 222 215 211 208 208 206 199 200 201 205 207 209 205 207 209 210 212 222 212 210 229 236 231 223 221 220 261 253 292 302 307 297 302 275 279 278 257 286 331
303 43 263 240 238 285 278 302 199 224 209 216 216 210 208 210 210 207 204 211 213 214 212 211 206 203 199 206 223 226 240 238 227 227 241 200 353 13 43 12 350 337 323 337 298 317 310 316 263
32 328 90 188 248 276 179 263 112 174 222 226 221 218 217 209 211 209 204 209 220 218 212 211 213 209 211 206 223 219 219 250 239 225 197 147 96 83 62 44 35 16 1 22 13 355 7 10 334
130 152 163 191 281 249 85 279 136 79 104 117 203 227 227 224 218 217 208 211 214 216 218 213 206 215 212 212 218 230 247 247 245 210 203 139 101 98 74 62 55 26 15 8 9 21 46 34 25
224 228 255 229 210 284 99 263 309 339 194 239 277 274 254 226 220 217 216 210 210 210 211 205 197 213 236 328 346 325 289 259 245 224 149 136 131 102 71 53 46 28 356 6 348 47 67 63 62
224 282 284 296 292 312 154 265 105 48 107 117 84 345 315 235 215 216 211 208 208 210 196 121 88 80 75 68 56 37 20 357 276 159 134 125 119 102 91 66 49 31 340 339 329 50 91 83 77
220 238 265 272 250 266 280 253 245 213 218 176 26 39 40 26 16 167 265 179 176 162 103 104 101 94 72 71 67 66 65 53 27 7 84 108 93 110 107 91 75 36 349 1 339 47 64 82 70
265 334 236 223 259 273 266 264 262 253 188 146 84 62 57 58 64 78 83 93 95 111 114 114 112 108 115 96 73 51 105 120 157 118 116 117 120 102 125 115 123 101 59 105 193 131 57 81 57
190 228 235 282 291 294 288 283 28 24 50 147 94 89 85 81 86 90 96 106 118 122 118 115 122 119 136 140 152 176 184 163 115 119 116 118 115 147 151 169 179 198 212 202 166 128 150 121 28
272 282 272 259 253 239 273 277 55 77 82 80 90 78 63 60 83 93 110 124 133 131 116 114 136 179 117 161 153 151 135 130 122 96 104 133 166 193 206 196 218 200 188 198 182 246 7 318 311